Location: Gleizolles
(44.4833°N, 6.7667°E)
Time: 16:13:23
(UTC+00:00)

Altair - Pass Details

Date: 29 June 2024
Orbit: 1502 x 1681 km, 47.2° (Epoch: 13 July)

Event Time Altitude Azimuth Distance (km) Brightness Sun altitude
Rises 00:26:54 0° 247° (WSW) 4,629 - -21.3°
Exits shadow 00:28:58 - 247° (WSW) 3,954 9.3 -21.2°
Reaches altitude 10° 00:29:54 10° 247° (WSW) 3,651 9.1 -21.2°
Maximum altitude 00:39:06 88° 161° (SSE) 1,524 7.4 -20.8°
Drops below altitude 10° 00:48:34 10° 72° (ENE) 3,743 10.0 -20.3°
Sets 00:51:40 0° 72° (ENE) 4,751 10.6 -20.2°
